[[{"header":{"parameterUnit":"m.s-1","parameterCategory":2,"la1":30.2991,"la2":30.254,"lo1":-89.0895,"lo2":-89.0444,"dy":0.0017,"dx":0.0017,"nx":28,"ny":28,"refTime":"2025-11-05T09:00:00:Z","depth":"0","parameterNumber":2,"parameterNumberName":"U-component_of_CURRENTS"},"data":[0,0,0,0,0,0,0,0,0,0,0,0,0,0,0,0,0,0,0,0,0,0,0,0,0,0,0,0,0,0,0,0,0,0,0,0,0,0,0,0,0,0,0,0,0,0,0,0,0,0,0,0,0,0,0,0,0,0,0.2636,0.2638,0,0.2727,0.2728,0.2729,0.2757,0.2757,0.2757,0.2757,0.2791,0.2792,0.2793,0,0,0,0,0,0,0,0,0,0,0,0,0,0.2486,0.2488,0.2636,0.2638,0.2639,0.2727,0.2728,0.2729,0.2757,0.2757,0.2757,0.2757,0.279,0.2792,0.2793,0,0,0,0,0,0,0,0,0,0,0,0,0,0.2558,0.2489,0.2636,0.2667,0.2671,0.2727,0.2728,0.2729,0.2757,0.2757,0.2757,0.2757,0.279,0.2791,0.2793,0.2805,0,0,0.2797,0.2798,0,0,0,0,0,0,0,0,0.2554,0.2563,0.2661,0.2665,0.2669,0.2734,0.2688,0.2753,0.2757,0.272,0.2757,0.2757,0.2769,0.2772,0.2785,0.2806,0.2808,0.2798,0.2799,0.2799,0.28,0,0,0,0,0,0,0,0.2549,0.2559,0.2668,0.2662,0.2668,0.2676,0.2685,0.27,0.274,0.2723,0.2727,0.2743,0.277,0.2784,0.2786,0.2808,0.2798,0.2799,0.28,0.28,0.2861,0.2861,0,0,0,0,0,0,0.2546,0.2555,0.2666,0.2671,0.2614,0.2679,0.2689,0.271,0.2741,0.2748,0.2743,0.2744,0.2781,0.2784,0.2787,0.2822,0.2799,0.2801,0.2801,0.286,0.2861,0.2861,0,0,0,0,0,0,0.2542,0.2555,0.2662,0.2617,0.2632,0.2682,0.2705,0.2712,0.2727,0.2758,0.2762,0.2751,0.2781,0.2785,0.2807,0.2823,0.2801,0.2803,0.2859,0.286,0.2861,0.288,0,0,0,0,0,0,0.2538,0.2553,0.2565,0.2618,0.2635,0.2699,0.2706,0.2714,0.2739,0.2741,0.2766,0.2769,0.2781,0.2805,0.2809,0.2825,0.2804,0.2858,0.286,0.2861,0.2879,0.2882,0.2884,0,0,0,0,0,0.2532,0.2552,0.2565,0.2578,0.265,0.27,0.2709,0.2741,0.274,0.2752,0.2768,0.2768,0.2816,0.2807,0.2811,0.2828,0.2857,0.2859,0.2861,0.2877,0.2881,0.2884,0,0,0,0,0,0,0.2499,0.2559,0.2574,0.2613,0.2654,0.2706,0.2723,0.274,0.2763,0.2764,0.2777,0.2783,0.2812,0.2814,0.2803,0.2849,0.2837,0.2839,0.2848,0.2852,0.2854,0.285,0.2805,0,0,0,0,0,0.2497,0.2522,0.2581,0.261,0.2631,0.2673,0.2696,0.2722,0.2752,0.2763,0.2779,0.2797,0.2822,0.2831,0.2853,0.2873,0.2886,0.2886,0.2889,0.2891,0.2891,0.2915,0.292,0.2867,0.2867,0.2867,0,0,0.2491,0.2529,0.2542,0.2604,0.2636,0.2673,0.2686,0.2727,0.2755,0.2762,0.2793,0.281,0.2831,0.2862,0.2874,0.2864,0.292,0.2893,0.2895,0.2894,0.2917,0.2923,0.2927,0.2868,0.2868,0.2867,0,0,0.2497,0.2526,0.2551,0.2586,0.2644,0.2673,0.2683,0.2736,0.2757,0.2794,0.2807,0.2829,0.2863,0.2883,0.2896,0.2924,0.2938,0.2933,0.294,0.2964,0.2968,0.2972,0.3021,0.3029,0.2929,0.2929,0.2929,0,0.2486,0.2533,0.2565,0.2602,0.2633,0.267,0.2705,0.2735,0.2787,0.2805,0.2806,0.2863,0.2875,0.2914,0.2925,0.2931,0.2954,0.2925,0.2967,0.2971,0.2975,0.3024,0.3033,0.293,0.293,0.293,0.293,0,0.2517,0.2553,0.2571,0.2626,0.2659,0.2698,0.2746,0.2774,0.2796,0.2827,0.2872,0.2893,0.2923,0.2934,0.2939,0.2974,0.2988,0.2972,0.2957,0.2982,0.3032,0.3041,0.2932,0.2931,0.2931,0.2931,0,0,0.2494,0.2576,0.2583,0.2612,0.2678,0.2709,0.2752,0.2805,0.2832,0.2873,0.2908,0.2946,0.2953,0.2968,0.2978,0.2995,0.3047,0.2993,0.2994,0.304,0.3125,0.3282,0.3307,0.3038,0.3039,0.304,0.3158,0,0.2509,0.2575,0.2614,0.2668,0.2703,0.2746,0.2784,0.2833,0.2868,0.2907,0.2936,0.2975,0.2968,0.2986,0.3002,0.3041,0.3067,0.3018,0.3095,0.3098,0.3233,0.3321,0.3283,0.3398,0.3166,0.3168,0.3169,0,0.2525,0.2571,0.2624,0.2694,0.2713,0.2741,0.2801,0.2842,0.2901,0.2932,0.2968,0.2997,0.3044,0.3022,0.31,0.3072,0.3097,0.312,0.3125,0.3269,0.3272,0.3332,0.3423,0.3292,0.3182,0.3181,0.318,0,0.2492,0.2574,0.2612,0.2637,0.272,0.2741,0.2777,0.2839,0.2886,0.294,0.2991,0.3034,0.3084,0.3109,0.3193,0.3137,0.3295,0.3217,0.3384,0.3396,0.3379,0.3389,0.335,0.3261,0.3261,0.3261,0.326,0,0.2491,0.2523,0.2594,0.2617,0.2657,0.2716,0.2762,0.2804,0.2881,0.2956,0.2993,0.3086,0.3107,0.3213,0.323,0.3393,0.3334,0.3422,0.3449,0.3391,0.3401,0.3299,0.3237,0.3265,0.3264,0.3263,0.3263,0,0.2445,0.2497,0.2541,0.262,0.2639,0.2659,0.2753,0.2796,0.2876,0.2975,0.3005,0.3141,0.3309,0.3379,0.3466,0.3489,0.3517,0.3646,0.361,0.3633,0.3654,0.3597,0.3522,0.3405,0.3823,0.3828,0.3832,0,0.2428,0.2447,0.252,0.2544,0.2574,0.2624,0.2667,0.2763,0.2829,0.3039,0.3096,0.3301,0.3469,0.3708,0.3808,0.393,0.3716,0.3928,0.3811,0.3698,0.365,0.3452,0.3339,0.3785,0.3788,0.3791,0.3793,0,0.2391,0.2412,0.2448,0.2494,0.2532,0.2589,0.2666,0.2724,0.2871,0.2993,0.3198,0.3357,0.3686,0.3844,0.4062,0.4111,0.3769,0.3994,0.3845,0.3627,0.3432,0.3319,0.3674,0.3817,0.3815,0.3813,0.3812,0.3811,0.2346,0.2355,0.2399,0.2439,0.2485,0.2537,0.2559,0.2687,0.2804,0.2983,0.3201,0.3426,0.3752,0.4095,0.412,0.4145,0.4021,0.3999,0.3945,0.3756,0.3627,0.4096,0.4299,0.4299,0.4299,0.4299,0.43,0,0.2288,0.2312,0.235,0.2384,0.2409,0.2461,0.2548,0.2569,0.2684,0.2936,0.3125,0.3507,0.3758,0.3959,0.4168,0.4063,0.3801,0.3929,0.3549,0.3438,0.3838,0.3821,0.3967,0.3967,0.3967,0.3967,0.3967,0.3967,0.2254,0.2265,0.2293,0.2301,0.2328,0.232,0.235,0.2408,0.255,0.2785,0.3013,0.325,0.3674,0.4006,0.3991,0.3898,0.3495,0.3458,0.3318,0.3532,0.3527,0.3523,0.3486,0.356,0.3559,0.2763,0.2758,0.2753]},{"header":{"parameterUnit":"m.s-1","parameterCategory":2,"la1":30.2991,"la2":30.254,"lo1":-89.0895,"lo2":-89.0444,"dy":0.0017,"dx":0.0017,"nx":28,"ny":28,"refTime":"2025-11-05T09:00:00:Z","depth":"0","parameterNumber":3,"parameterNumberName":"V-component_of_CURRENTS"},"data":[0,0,0,0,0,0,0,0,0,0,0,0,0,0,0,0,0,0,0,0,0,0,0,0,0,0,0,0,0,0,0,0,0,0,0,0,0,0,0,0,0,0,0,0,0,0,0,0,0,0,0,0,0,0,0,0,0,0,-0.0656,-0.0657,0,-0.0768,-0.0769,-0.0771,-0.0849,-0.0849,-0.0849,-0.085,-0.0969,-0.0972,-0.0975,0,0,0,0,0,0,0,0,0,0,0,0,0,-0.0612,-0.0612,-0.0656,-0.0657,-0.0658,-0.0768,-0.0769,-0.0771,-0.0849,-0.0849,-0.085,-0.085,-0.0968,-0.0971,-0.0975,0,0,0,0,0,0,0,0,0,0,0,0,0,-0.0671,-0.0612,-0.0656,-0.0708,-0.0713,-0.0767,-0.077,-0.0772,-0.0849,-0.0849,-0.085,-0.085,-0.0967,-0.0971,-0.0975,-0.0994,0,0,-0.0989,-0.0991,0,0,0,0,0,0,0,0,-0.0668,-0.0673,-0.0699,-0.0704,-0.071,-0.0792,-0.0798,-0.0845,-0.0849,-0.0801,-0.085,-0.085,-0.0908,-0.0917,-0.0942,-0.1,-0.1005,-0.0989,-0.0992,-0.0994,-0.0995,0,0,0,0,0,0,0,-0.0663,-0.0669,-0.0704,-0.07,-0.0707,-0.076,-0.0768,-0.0808,-0.0854,-0.0805,-0.081,-0.0817,-0.0911,-0.0938,-0.0945,-0.1007,-0.0989,-0.0993,-0.0996,-0.0997,-0.1084,-0.1084,0,0,0,0,0,0,-0.0636,-0.0665,-0.07,-0.0707,-0.0685,-0.0759,-0.0769,-0.0768,-0.0853,-0.0865,-0.0816,-0.082,-0.093,-0.094,-0.095,-0.0998,-0.0994,-0.0998,-0.1,-0.1084,-0.1084,-0.1084,0,0,0,0,0,0,-0.0635,-0.0638,-0.0696,-0.0686,-0.0697,-0.0759,-0.0758,-0.077,-0.0796,-0.0861,-0.0874,-0.0829,-0.0931,-0.0944,-0.0984,-0.1002,-0.1,-0.1004,-0.1085,-0.1084,-0.1084,-0.1081,0,0,0,0,0,0,-0.0633,-0.0637,-0.0632,-0.0684,-0.0696,-0.0733,-0.0757,-0.0772,-0.0798,-0.0804,-0.0876,-0.0888,-0.0932,-0.0977,-0.0988,-0.1008,-0.1007,-0.1085,-0.1085,-0.1084,-0.1081,-0.108,-0.1079,0,0,0,0,0,-0.0631,-0.0619,-0.0631,-0.0635,-0.0685,-0.0733,-0.0746,-0.0794,-0.0798,-0.0817,-0.0856,-0.0886,-0.0981,-0.0981,-0.0994,-0.1015,-0.1085,-0.1085,-0.1084,-0.1082,-0.108,-0.1079,0,0,0,0,0,0,-0.0595,-0.0626,-0.0641,-0.0638,-0.0684,-0.0745,-0.0759,-0.0786,-0.0833,-0.0831,-0.0888,-0.0903,-0.0948,-0.097,-0.0968,-0.1034,-0.1036,-0.1038,-0.1029,-0.1029,-0.1028,-0.1024,-0.1011,0,0,0,0,0,-0.0582,-0.0582,-0.0629,-0.0628,-0.0644,-0.0698,-0.0722,-0.0754,-0.0797,-0.0819,-0.0871,-0.0913,-0.0955,-0.098,-0.1023,-0.1059,-0.108,-0.1076,-0.1075,-0.1074,-0.1077,-0.113,-0.1135,-0.1081,-0.1081,-0.1081,0,0,-0.0566,-0.0583,-0.0584,-0.0621,-0.0655,-0.0685,-0.0715,-0.0744,-0.0774,-0.0822,-0.0874,-0.0916,-0.0961,-0.101,-0.103,-0.1032,-0.1095,-0.1073,-0.1073,-0.1076,-0.113,-0.1136,-0.1141,-0.1081,-0.1081,-0.1081,0,0,-0.0541,-0.055,-0.0548,-0.0584,-0.0627,-0.0667,-0.067,-0.0734,-0.0766,-0.0815,-0.0855,-0.0905,-0.0968,-0.1018,-0.1044,-0.1057,-0.1089,-0.1061,-0.1061,-0.1112,-0.1118,-0.1123,-0.1137,-0.1143,-0.1061,-0.1061,-0.1061,0,-0.0521,-0.0525,-0.0558,-0.0574,-0.0601,-0.0653,-0.0672,-0.0714,-0.0786,-0.0806,-0.0826,-0.0927,-0.0976,-0.1032,-0.1046,-0.106,-0.1076,-0.1066,-0.1114,-0.1119,-0.1125,-0.1138,-0.1145,-0.1061,-0.1061,-0.1061,-0.1061,0,-0.0502,-0.0514,-0.0515,-0.0553,-0.0591,-0.0612,-0.0673,-0.0706,-0.0744,-0.079,-0.0853,-0.0928,-0.0983,-0.1012,-0.1041,-0.1099,-0.1091,-0.1109,-0.1121,-0.113,-0.1142,-0.115,-0.106,-0.106,-0.106,-0.106,0,0,-0.0427,-0.049,-0.0488,-0.0505,-0.058,-0.06,-0.0647,-0.0702,-0.0709,-0.0798,-0.0829,-0.093,-0.0964,-0.0995,-0.1043,-0.1102,-0.116,-0.1121,-0.1124,-0.1141,-0.1246,-0.1148,-0.1147,-0.1188,-0.119,-0.1191,-0.1232,0,-0.0402,-0.0415,-0.0468,-0.0493,-0.0506,-0.0578,-0.0611,-0.0666,-0.0717,-0.076,-0.0847,-0.089,-0.0956,-0.0975,-0.1053,-0.1128,-0.1183,-0.1146,-0.1228,-0.123,-0.1149,-0.1154,-0.1054,-0.1073,-0.1239,-0.1241,-0.1241,0,-0.0361,-0.0377,-0.0388,-0.0449,-0.046,-0.0485,-0.0531,-0.0571,-0.0645,-0.0685,-0.076,-0.0818,-0.0918,-0.0967,-0.112,-0.109,-0.1168,-0.1234,-0.1237,-0.1155,-0.1147,-0.1094,-0.1081,-0.1296,-0.1253,-0.1253,-0.1252,0,-0.0268,-0.0322,-0.0322,-0.0343,-0.0416,-0.0427,-0.0467,-0.0533,-0.0534,-0.0625,-0.062,-0.0768,-0.0794,-0.0951,-0.1074,-0.1104,-0.1221,-0.1278,-0.1265,-0.1257,-0.1192,-0.1175,-0.1403,-0.139,-0.139,-0.139,-0.1389,0,-0.0215,-0.0216,-0.0268,-0.0261,-0.0245,-0.0338,-0.0321,-0.0379,-0.0428,-0.0381,-0.0557,-0.0523,-0.079,-0.0874,-0.1042,-0.1143,-0.1191,-0.126,-0.1266,-0.1181,-0.1164,-0.1362,-0.1494,-0.1391,-0.1391,-0.139,-0.139,0,-0.0121,-0.0158,-0.0145,-0.0191,-0.0194,-0.0176,-0.0202,-0.0178,-0.025,-0.0193,-0.0205,-0.0333,-0.0425,-0.0663,-0.0882,-0.1037,-0.1274,-0.1212,-0.107,-0.1058,-0.1258,-0.139,-0.1594,-0.1673,-0.1232,-0.123,-0.1228,0,-0.0079,-0.0058,-0.0051,-0.0014,-0.0028,-0.0015,0.0016,-0.0065,-0.0017,-0.002,0.0045,-0.0045,-0.0014,-0.0315,-0.0623,-0.0891,-0.1143,-0.101,-0.1069,-0.125,-0.1406,-0.1518,-0.1581,-0.0982,-0.0978,-0.0975,-0.0973,0,0.001,0.0026,0.0048,0.0138,0.0187,0.0231,0.0271,0.0348,0.0316,0.0395,0.0522,0.0546,0.0282,0.0089,-0.0318,-0.0549,-0.113,-0.0953,-0.1206,-0.1275,-0.1353,-0.1433,-0.0961,-0.0946,-0.0949,-0.0951,-0.0952,-0.0953,0.01,0.0151,0.0212,0.0297,0.037,0.0494,0.059,0.0683,0.0835,0.1016,0.0971,0.1106,0.0704,0.0193,-0.0171,-0.0819,-0.0895,-0.1022,-0.1178,-0.1284,-0.1339,-0.0774,-0.0723,-0.0725,-0.0726,-0.0727,-0.0728,0,0.0219,0.0274,0.0362,0.0492,0.0623,0.0611,0.0782,0.0921,0.1197,0.1391,0.155,0.1496,0.1005,0.0371,-0.0485,-0.0957,-0.12,-0.1269,-0.1463,-0.1527,-0.1072,-0.1038,-0.0972,-0.0972,-0.0972,-0.0972,-0.0972,-0.0971,0.0291,0.0408,0.0454,0.07,0.08,0.1,0.1126,0.1354,0.1541,0.1872,0.2019,0.208,0.1592,0.0022,-0.1071,-0.1352,-0.1762,-0.1791,-0.2036,-0.1785,-0.1777,-0.1769,-0.1772,-0.1862,-0.1863,-0.2401,-0.2407,-0.2411]}],[{"header":{"parameterUnit":"m.s-1","parameterCategory":2,"la1":30.2991,"la2":30.254,"lo1":-89.0895,"lo2":-89.0444,"dy":0.0017,"dx":0.0017,"nx":28,"ny":28,"refTime":"2025-11-05T09:00:00:Z","depth":"2","parameterNumber":2,"parameterNumberName":"U-component_of_CURRENTS"},"data":[0,0,0,0,0,0,0,0,0,0,0,0,0,0,0,0,0,0,0,0,0,0,0,0,0,0,0,0,0,0,0,0,0,0,0,0,0,0,0,0,0,0,0,0,0,0,0,0,0,0,0,0,0,0,0,0,0,0,0.2358,0.2359,0,0.2428,0.2428,0.2429,0.2475,0.2476,0.2476,0.2477,0.2513,0.2513,0.2514,0,0,0,0,0,0,0,0,0,0,0,0,0,0.2276,0.2277,0.2358,0.2359,0.236,0.2427,0.2428,0.2429,0.2475,0.2476,0.2477,0.2477,0.2512,0.2513,0.2514,0,0,0,0,0,0,0,0,0,0,0,0,0,0.2323,0.2277,0.2358,0.2392,0.2396,0.2427,0.2428,0.2429,0.2475,0.2476,0.2477,0.2477,0.2512,0.2513,0.2514,0.2504,0,0,0.2516,0.2516,0,0,0,0,0,0,0,0,0.2321,0.2326,0.2386,0.239,0.2395,0.2445,0.2413,0.2453,0.2475,0.2443,0.2477,0.2478,0.2487,0.249,0.25,0.2506,0.2507,0.2516,0.2517,0.2517,0.2517,0,0,0,0,0,0,0,0.2317,0.2324,0.2384,0.2387,0.2392,0.2408,0.2416,0.2421,0.2459,0.2446,0.245,0.246,0.2489,0.2499,0.2501,0.2508,0.2516,0.2517,0.2517,0.2517,0.2569,0.2569,0,0,0,0,0,0,0.2311,0.232,0.2382,0.2386,0.2361,0.2409,0.2417,0.2427,0.2459,0.2466,0.246,0.2462,0.2497,0.25,0.2502,0.2565,0.2517,0.2518,0.2518,0.2568,0.2569,0.257,0,0,0,0,0,0,0.2309,0.2316,0.2379,0.2356,0.2366,0.241,0.242,0.2428,0.2459,0.247,0.2476,0.2486,0.2498,0.2501,0.2524,0.2563,0.2518,0.2519,0.2567,0.2568,0.2569,0.2643,0,0,0,0,0,0,0.2306,0.2314,0.2317,0.2356,0.2367,0.2407,0.242,0.2429,0.2463,0.2468,0.2494,0.2497,0.2499,0.2523,0.2524,0.2564,0.2519,0.2566,0.2567,0.2569,0.2639,0.2646,0.2653,0,0,0,0,0,0.2303,0.2308,0.2316,0.2324,0.2369,0.2408,0.2415,0.2448,0.2464,0.2478,0.2498,0.2497,0.2535,0.2524,0.2526,0.2566,0.2565,0.2567,0.2569,0.2636,0.2645,0.2652,0,0,0,0,0,0,0.2279,0.2314,0.2324,0.2341,0.2375,0.2417,0.2437,0.2458,0.2485,0.2496,0.2504,0.2508,0.2552,0.2537,0.2525,0.2584,0.2551,0.2554,0.2602,0.261,0.2617,0.2626,0.252,0,0,0,0,0,0.2272,0.2288,0.2323,0.2342,0.2359,0.24,0.2421,0.2446,0.2477,0.2491,0.2509,0.2528,0.2558,0.2566,0.2584,0.2604,0.2619,0.2631,0.2638,0.2644,0.2651,0.2706,0.2719,0.2576,0.2576,0.2576,0,0,0.2268,0.2293,0.2301,0.2339,0.2371,0.2405,0.2415,0.2458,0.2496,0.2488,0.2541,0.2558,0.257,0.2609,0.2625,0.2602,0.2693,0.2646,0.2652,0.2656,0.271,0.2724,0.2736,0.2578,0.2578,0.2577,0,0,0.2284,0.2294,0.2317,0.2345,0.2395,0.2418,0.2434,0.2482,0.2515,0.2558,0.2575,0.261,0.2638,0.2662,0.2677,0.2725,0.2736,0.273,0.2766,0.2819,0.2832,0.2843,0.289,0.2905,0.2724,0.2724,0.2724,0,0.2274,0.2315,0.2331,0.2367,0.2398,0.2428,0.2468,0.2502,0.2552,0.2584,0.2584,0.2665,0.2671,0.2735,0.2752,0.2745,0.2771,0.2738,0.2831,0.2842,0.2852,0.2898,0.2913,0.2728,0.2727,0.2727,0.2727,0,0.2313,0.2347,0.2369,0.242,0.2449,0.2491,0.2535,0.2574,0.2613,0.2647,0.2726,0.2744,0.279,0.2801,0.2792,0.2869,0.2865,0.2844,0.2815,0.2872,0.2915,0.293,0.2733,0.2732,0.2731,0.273,0,0,0.2282,0.2376,0.2383,0.2419,0.2484,0.2509,0.2578,0.2644,0.2697,0.2747,0.2818,0.2872,0.2885,0.2901,0.2905,0.294,0.3034,0.292,0.2921,0.2976,0.3159,0.3108,0.3119,0.3035,0.3038,0.304,0.3164,0,0.231,0.2375,0.2428,0.2495,0.2525,0.2584,0.2643,0.2702,0.276,0.2826,0.2873,0.2934,0.2924,0.2951,0.2993,0.3025,0.3075,0.3002,0.3087,0.309,0.3046,0.3135,0.2912,0.2999,0.3178,0.3181,0.3183,0,0.2325,0.2365,0.2435,0.2528,0.2552,0.2599,0.2693,0.2761,0.2856,0.2905,0.2979,0.3005,0.3081,0.3051,0.3167,0.3124,0.3151,0.317,0.3175,0.3112,0.3067,0.2968,0.3019,0.3207,0.3205,0.3203,0.3202,0,0.2268,0.2369,0.2426,0.2455,0.256,0.2615,0.268,0.2777,0.2846,0.2956,0.301,0.3097,0.3161,0.3211,0.3276,0.3221,0.3404,0.3326,0.3315,0.3312,0.3128,0.3104,0.3415,0.3415,0.3414,0.3414,0.3414,0,0.2264,0.2304,0.2404,0.2429,0.2492,0.2586,0.2683,0.2757,0.2881,0.2961,0.3047,0.313,0.3206,0.3312,0.333,0.3402,0.3463,0.335,0.3351,0.3147,0.3124,0.3296,0.3281,0.3419,0.3418,0.3417,0.3416,0,0.2202,0.2272,0.2331,0.2439,0.2468,0.2515,0.2664,0.2731,0.2868,0.2979,0.3016,0.3182,0.3306,0.3395,0.3502,0.3483,0.3539,0.3551,0.3311,0.3281,0.3383,0.3369,0.3503,0.3503,0.3502,0.3502,0.3502,0,0.2182,0.2206,0.2305,0.2332,0.2389,0.2477,0.2533,0.2687,0.2761,0.3007,0.3042,0.3225,0.3301,0.348,0.3508,0.3556,0.3588,0.336,0.3192,0.341,0.3398,0.3385,0.3373,0.2984,0.2979,0.2976,0.2973,0,0.2132,0.2176,0.2223,0.2268,0.2323,0.2394,0.2491,0.2539,0.2737,0.2826,0.2976,0.3066,0.3272,0.3237,0.3356,0.3342,0.332,0.3282,0.3613,0.2991,0.2928,0.2914,0.2917,0.294,0.2943,0.2945,0.2947,0.2949,0.2089,0.2101,0.2162,0.2202,0.2253,0.2298,0.2321,0.2428,0.2513,0.2639,0.2808,0.2881,0.3001,0.3031,0.3004,0.3001,0.3175,0.3021,0.3029,0.3041,0.2954,0.2894,0.2882,0.2885,0.2888,0.289,0.2892,0,0.202,0.2048,0.2088,0.2127,0.2144,0.2213,0.2274,0.2272,0.2305,0.2455,0.2538,0.2435,0.2483,0.2601,0.2554,0.2581,0.2519,0.2469,0.2359,0.2397,0.243,0.2305,0.2065,0.2062,0.2058,0.2056,0,0,0.1982,0.1985,0.2007,0.2002,0.204,0.2024,0.2035,0.2026,0.2084,0.2078,0.2118,0.2351,0.2515,0.2233,0.2244,0.2136,0.2227,0.2063,0.274,0.2648,0.2675,0.2785,0.2643,0,0,0,0,0]},{"header":{"parameterUnit":"m.s-1","parameterCategory":2,"la1":30.2991,"la2":30.254,"lo1":-89.0895,"lo2":-89.0444,"dy":0.0017,"dx":0.0017,"nx":28,"ny":28,"refTime":"2025-11-05T09:00:00:Z","depth":"2","parameterNumber":3,"parameterNumberName":"V-component_of_CURRENTS"},"data":[0,0,0,0,0,0,0,0,0,0,0,0,0,0,0,0,0,0,0,0,0,0,0,0,0,0,0,0,0,0,0,0,0,0,0,0,0,0,0,0,0,0,0,0,0,0,0,0,0,0,0,0,0,0,0,0,0,0,0.0013,0.0012,0,-0.005,-0.005,-0.0051,-0.0132,-0.0133,-0.0134,-0.0136,-0.0282,-0.0285,-0.0288,0,0,0,0,0,0,0,0,0,0,0,0,0,0.0045,0.0045,0.0013,0.0012,0.0011,-0.0049,-0.005,-0.0051,-0.0132,-0.0133,-0.0135,-0.0136,-0.0281,-0.0285,-0.0288,0,0,0,0,0,0,0,0,0,0,0,0,0,0.0011,0.0045,0.0013,-0.0035,-0.004,-0.0049,-0.005,-0.0052,-0.0131,-0.0133,-0.0135,-0.0137,-0.028,-0.0284,-0.0288,-0.0277,0,0,-0.0301,-0.0303,0,0,0,0,0,0,0,0,0.0013,0.001,-0.0028,-0.0032,-0.0038,-0.0084,-0.0093,-0.0131,-0.0131,-0.0098,-0.0136,-0.0138,-0.0222,-0.0231,-0.0239,-0.0284,-0.029,-0.0301,-0.0304,-0.0306,-0.0307,0,0,0,0,0,0,0,0.0015,0.0012,-0.0013,-0.0028,-0.0034,-0.006,-0.0067,-0.01,-0.0151,-0.0101,-0.0107,-0.0111,-0.0226,-0.0234,-0.0243,-0.0292,-0.0301,-0.0305,-0.0307,-0.0309,-0.0394,-0.0394,0,0,0,0,0,0,0.0028,0.0014,-0.0011,-0.0015,-0.0015,-0.0059,-0.0066,-0.0068,-0.0149,-0.0162,-0.011,-0.0115,-0.0226,-0.0238,-0.0248,-0.0284,-0.0306,-0.0309,-0.0312,-0.0395,-0.0394,-0.0394,0,0,0,0,0,0,0.0029,0.0027,-0.0008,-0.0001,-0.0008,-0.0057,-0.0058,-0.0068,-0.0089,-0.0155,-0.017,-0.0122,-0.0228,-0.0243,-0.0283,-0.0289,-0.0311,-0.0315,-0.0395,-0.0395,-0.0394,-0.0326,0,0,0,0,0,0,0.003,0.0028,0.0037,-0.0,-0.0007,-0.0008,-0.0057,-0.0068,-0.0088,-0.0096,-0.0169,-0.0184,-0.0231,-0.0277,-0.0287,-0.0295,-0.0318,-0.0395,-0.0395,-0.0394,-0.0329,-0.0324,-0.0319,0,0,0,0,0,0.0032,0.0054,0.0038,0.0035,0.0006,-0.0007,-0.0013,-0.0056,-0.0086,-0.0084,-0.014,-0.0183,-0.0282,-0.0279,-0.0292,-0.0301,-0.0395,-0.0395,-0.0394,-0.0331,-0.0325,-0.0319,0,0,0,0,0,0,0.0071,0.0047,0.0029,0.0041,0.0021,-0.0021,-0.0026,-0.0051,-0.009,-0.0112,-0.0174,-0.0191,-0.0239,-0.0269,-0.0264,-0.0324,-0.0348,-0.035,-0.0295,-0.029,-0.0285,-0.0273,-0.0322,0,0,0,0,0,0.0087,0.009,0.0065,0.007,0.006,0.0018,0.0008,-0.0023,-0.0064,-0.0084,-0.0127,-0.0185,-0.0241,-0.0264,-0.0316,-0.0333,-0.0365,-0.0349,-0.0344,-0.034,-0.0338,-0.0396,-0.0396,-0.0393,-0.0393,-0.0393,0,0,0.0098,0.0088,0.0086,0.0078,0.0049,0.0049,0.0006,-0.0015,-0.0028,-0.0093,-0.0122,-0.0174,-0.0245,-0.028,-0.0302,-0.0307,-0.0351,-0.0339,-0.0335,-0.0335,-0.0395,-0.0396,-0.0396,-0.0392,-0.0392,-0.0392,0,0,0.0127,0.0113,0.0128,0.0116,0.0088,0.0065,0.0063,0.0028,-0.0004,-0.0033,-0.0094,-0.0131,-0.0205,-0.0243,-0.028,-0.0271,-0.0333,-0.0301,-0.0257,-0.0313,-0.0314,-0.0315,-0.0325,-0.0328,-0.0287,-0.0287,-0.0287,0,0.0146,0.0155,0.013,0.014,0.0131,0.0077,0.0086,0.0053,0.0011,-0.0004,-0.004,-0.0147,-0.0187,-0.0242,-0.0237,-0.026,-0.0298,-0.0272,-0.0307,-0.0309,-0.0311,-0.0322,-0.0326,-0.0284,-0.0284,-0.0285,-0.0285,0,0.018,0.0188,0.019,0.0185,0.0179,0.017,0.0129,0.0118,0.0072,0.0041,-0.0027,-0.0095,-0.0153,-0.0173,-0.0204,-0.0242,-0.0263,-0.0302,-0.0319,-0.0308,-0.0319,-0.0324,-0.0279,-0.028,-0.0281,-0.0282,0,0,0.0218,0.0218,0.0216,0.0229,0.0196,0.0202,0.0179,0.0158,0.015,0.0078,0.0062,-0.0035,-0.0077,-0.012,-0.0174,-0.0209,-0.0229,-0.0254,-0.0259,-0.0257,-0.0335,-0.0324,-0.0328,-0.0294,-0.0295,-0.0296,-0.0324,0,0.0247,0.0299,0.0269,0.0296,0.0324,0.0268,0.0257,0.0229,0.0185,0.0167,0.0065,0.0016,-0.0063,-0.0091,-0.0146,-0.0206,-0.0247,-0.0216,-0.0352,-0.0355,-0.0342,-0.0336,-0.0334,-0.0358,-0.033,-0.0331,-0.0331,0,0.0285,0.0325,0.0364,0.0378,0.0376,0.037,0.0359,0.0331,0.028,0.0243,0.0164,0.0091,0.0027,-0.0047,-0.0181,-0.0168,-0.0248,-0.0304,-0.0307,-0.0328,-0.0355,-0.0373,-0.037,-0.0341,-0.034,-0.034,-0.0339,0,0.0354,0.0384,0.0421,0.0423,0.0428,0.0419,0.0399,0.0361,0.0361,0.0287,0.0298,0.0161,0.0125,-0.0026,-0.0143,-0.0171,-0.0277,-0.0328,-0.0401,-0.0399,-0.0437,-0.0437,-0.0441,-0.0441,-0.0441,-0.0441,-0.0441,0,0.04,0.0433,0.0458,0.0478,0.0525,0.0482,0.0494,0.0462,0.0437,0.0469,0.0327,0.0339,0.0123,0.004,-0.0108,-0.0253,-0.0264,-0.0389,-0.0415,-0.0409,-0.0406,-0.0433,-0.0432,-0.0442,-0.0441,-0.0441,-0.0441,0,0.0451,0.0462,0.0518,0.0541,0.0556,0.0575,0.0582,0.0603,0.0549,0.0593,0.0579,0.0493,0.0378,0.0174,-0.0016,-0.0173,-0.0328,-0.0386,-0.0336,-0.0356,-0.0419,-0.0414,-0.0469,-0.0469,-0.0469,-0.0469,-0.0469,0,0.0477,0.0514,0.0577,0.0618,0.0617,0.0651,0.0684,0.0661,0.0706,0.0706,0.076,0.0664,0.0617,0.0334,0.0042,-0.0229,-0.0276,-0.0396,-0.0458,-0.0406,-0.0427,-0.0421,-0.0416,-0.0467,-0.0467,-0.0467,-0.0467,0,0.0532,0.0538,0.0585,0.0687,0.0736,0.0808,0.086,0.0935,0.0923,0.0963,0.1011,0.0967,0.0699,0.042,0.0046,-0.014,-0.0358,-0.0403,-0.0382,-0.0454,-0.0407,-0.0425,-0.0421,-0.0467,-0.0467,-0.0467,-0.0467,-0.0467,0.0558,0.0604,0.0666,0.0753,0.0832,0.0944,0.1008,0.1089,0.1177,0.1228,0.1202,0.1121,0.0811,0.0326,0.0005,-0.0337,-0.0329,-0.0468,-0.0468,-0.0468,-0.0457,-0.0412,-0.0468,-0.0468,-0.0468,-0.0468,-0.0468,0,0.0607,0.0659,0.0738,0.0847,0.0939,0.0977,0.1119,0.1177,0.1294,0.1343,0.1341,0.1047,0.0723,0.038,-0.014,-0.0445,-0.0489,-0.0525,-0.0529,-0.0527,-0.0525,-0.0518,-0.0545,-0.0546,-0.0547,-0.0548,0,0,0.0635,0.0718,0.0761,0.092,0.1,0.1133,0.1219,0.1307,0.1365,0.1394,0.1351,0.1248,0.0831,0.0452,0.0033,-0.026,-0.0321,-0.0313,-0.0223,-0.0178,-0.0172,-0.0467,-0.0449,0,0,0,0,0]}],[{"header":{"parameterUnit":"m.s-1","parameterCategory":2,"la1":30.2991,"la2":30.254,"lo1":-89.0895,"lo2":-89.0444,"dy":0.0017,"dx":0.0017,"nx":28,"ny":28,"refTime":"2025-11-05T09:00:00:Z","depth":"4","parameterNumber":2,"parameterNumberName":"U-component_of_CURRENTS"},"data":[0,0,0,0,0,0,0,0,0,0,0,0,0,0,0,0,0,0,0,0,0,0,0,0,0,0,0,0,0,0,0,0,0,0,0,0,0,0,0,0,0,0,0,0,0,0,0,0,0,0,0,0,0,0,0,0,0,0,0.1364,0.1365,0,0.1414,0.1414,0.1415,0.1465,0.1466,0.1467,0.1468,0.1551,0.1552,0.1553,0,0,0,0,0,0,0,0,0,0,0,0,0,0.1269,0.127,0.1364,0.1365,0.1365,0.1414,0.1414,0.1415,0.1465,0.1466,0.1467,0.1468,0.155,0.1552,0.1553,0,0,0,0,0,0,0,0,0,0,0,0,0,0.1311,0.1271,0.1364,0.1398,0.1402,0.1414,0.1414,0.1415,0.1465,0.1466,0.1468,0.1469,0.155,0.1552,0.1554,0.154,0,0,0.156,0.1561,0,0,0,0,0,0,0,0,0.1309,0.1315,0.1392,0.1396,0.14,0.1437,0.1411,0.1459,0.1465,0.1439,0.1468,0.147,0.1516,0.1521,0.1524,0.1544,0.1547,0.156,0.1561,0.1562,0.1563,0,0,0,0,0,0,0,0.1306,0.1312,0.1381,0.1393,0.1398,0.1397,0.1404,0.142,0.1468,0.1441,0.1445,0.1454,0.1518,0.1521,0.1526,0.1548,0.156,0.1562,0.1563,0.1564,0.1666,0.1667,0,0,0,0,0,0,0.1305,0.131,0.138,0.1383,0.1359,0.1398,0.1406,0.1422,0.1467,0.1476,0.1453,0.1456,0.1517,0.1524,0.1529,0.1615,0.1562,0.1564,0.1565,0.1664,0.1666,0.1668,0,0,0,0,0,0,0.1303,0.1311,0.1378,0.1349,0.1358,0.1398,0.1415,0.1422,0.1455,0.1477,0.1486,0.1483,0.1519,0.1526,0.1574,0.1615,0.1565,0.1567,0.1663,0.1665,0.1667,0.1724,0,0,0,0,0,0,0.13,0.131,0.1328,0.1349,0.1359,0.14,0.1414,0.1422,0.1458,0.1463,0.1504,0.1512,0.152,0.1571,0.1576,0.1617,0.1569,0.1661,0.1664,0.1666,0.172,0.1728,0.1734,0,0,0,0,0,0.1297,0.1317,0.1329,0.1338,0.1381,0.1401,0.1406,0.1436,0.1458,0.1471,0.1509,0.1512,0.1592,0.1573,0.1579,0.1622,0.1659,0.1663,0.1666,0.1717,0.1726,0.1734,0,0,0,0,0,0,0.1282,0.1325,0.1338,0.137,0.139,0.1411,0.1437,0.145,0.1487,0.151,0.1526,0.1535,0.1593,0.1596,0.1574,0.1659,0.1628,0.1633,0.1665,0.1674,0.1681,0.1687,0.157,0,0,0,0,0,0.1286,0.132,0.1345,0.1372,0.1391,0.1416,0.1433,0.1453,0.1485,0.1504,0.1532,0.1569,0.1604,0.1631,0.1654,0.1697,0.1704,0.1729,0.1736,0.1742,0.1752,0.1791,0.1803,0.1679,0.1679,0.1678,0,0,0.1288,0.1317,0.1336,0.1372,0.14,0.1426,0.1431,0.1471,0.1501,0.1507,0.1569,0.1593,0.1619,0.1673,0.1699,0.1686,0.1783,0.1747,0.1752,0.1758,0.1796,0.1808,0.1818,0.1681,0.168,0.168,0,0,0.1294,0.1339,0.1361,0.1391,0.1436,0.1452,0.1468,0.1505,0.1537,0.1582,0.1605,0.1651,0.1698,0.1729,0.1749,0.1807,0.1815,0.1824,0.1872,0.191,0.1921,0.193,0.196,0.1972,0.1832,0.1832,0.1832,0,0.1296,0.133,0.1368,0.14,0.1432,0.1468,0.1494,0.153,0.1576,0.1609,0.1613,0.1704,0.1723,0.1797,0.1825,0.1824,0.1847,0.1838,0.192,0.1929,0.1938,0.1966,0.1978,0.1835,0.1835,0.1835,0.1834,0,0.1312,0.1352,0.1377,0.1433,0.1464,0.1503,0.1552,0.1595,0.1636,0.1667,0.1748,0.1778,0.1835,0.1851,0.186,0.1942,0.1939,0.192,0.1897,0.1954,0.198,0.1991,0.184,0.1839,0.1838,0.1837,0,0,0.1289,0.1369,0.1384,0.1413,0.1493,0.1515,0.1586,0.1645,0.1702,0.1756,0.1825,0.1889,0.1919,0.1944,0.1967,0.2004,0.2084,0.2001,0.2002,0.203,0.2179,0.2066,0.2067,0.2088,0.2091,0.2092,0.2174,0,0.1293,0.1348,0.1391,0.1451,0.1484,0.1553,0.1608,0.1676,0.1743,0.1822,0.1882,0.1956,0.1954,0.1998,0.2039,0.2076,0.2117,0.2064,0.2121,0.2123,0.2014,0.2077,0.2099,0.2183,0.2185,0.2187,0.2189,0,0.1292,0.1335,0.1385,0.1464,0.1487,0.1532,0.1639,0.1695,0.1817,0.1873,0.1967,0.2021,0.2116,0.2091,0.219,0.2164,0.2185,0.2197,0.22,0.2082,0.2031,0.2114,0.2209,0.2207,0.2206,0.2204,0.2203,0,0.1247,0.133,0.1369,0.1404,0.1496,0.1543,0.1603,0.1717,0.178,0.1928,0.1994,0.2101,0.2173,0.2219,0.2266,0.2245,0.2353,0.2317,0.2232,0.2224,0.2275,0.2264,0.2378,0.2378,0.2378,0.2378,0.2377,0,0.1226,0.1267,0.136,0.1387,0.1448,0.1527,0.1611,0.1692,0.182,0.1906,0.2028,0.2108,0.2213,0.2289,0.2305,0.231,0.2388,0.2255,0.2242,0.2297,0.2288,0.2283,0.2271,0.2381,0.238,0.2379,0.2379,0,0.1165,0.1229,0.128,0.1385,0.1425,0.1474,0.1607,0.167,0.1803,0.1926,0.1982,0.2143,0.2249,0.2326,0.2408,0.235,0.2364,0.2342,0.2414,0.2401,0.22,0.2191,0.2254,0.2251,0.2248,0.2246,0.2244,0,0.1135,0.1154,0.1265,0.1304,0.1358,0.1449,0.1512,0.165,0.1721,0.193,0.1978,0.2144,0.224,0.2264,0.2346,0.2377,0.2347,0.233,0.2248,0.2209,0.2191,0.2185,0.2179,0.224,0.2239,0.2238,0.2238,0,0.1071,0.1118,0.1163,0.1245,0.1317,0.1381,0.1488,0.1525,0.1694,0.1833,0.194,0.2017,0.2136,0.2201,0.2247,0.2257,0.2325,0.2301,0.2306,0.2228,0.2192,0.2176,0.2173,0.2228,0.223,0.2231,0.2231,0,0.1027,0.1043,0.1109,0.1173,0.1258,0.1298,0.1359,0.1451,0.1533,0.1761,0.1795,0.1975,0.2119,0.2141,0.2181,0.2191,0.2155,0.2066,0.2082,0.2093,0.2003,0.1931,0.189,0,0,0,0,0,0.0978,0.0991,0.1036,0.1099,0.1177,0.1224,0.1339,0.1403,0.1571,0.1606,0.1694,0.1803,0.1898,0.1981,0.1962,0.2111,0.2156,0.2078,0.2058,0.2176,0.2187,0.2096,0,0,0,0,0,0,0.0946,0.0986,0.1003,0.1026,0.1055,0.1126,0.1191,0.1297,0.1317,0.1497,0.1554,0.1695,0.1806,0.1897,0.193,0.1955,0.1905,0.2186,0.2182,0.217,0.218,0.2189,0.2099,0,0,0,0,0]},{"header":{"parameterUnit":"m.s-1","parameterCategory":2,"la1":30.2991,"la2":30.254,"lo1":-89.0895,"lo2":-89.0444,"dy":0.0017,"dx":0.0017,"nx":28,"ny":28,"refTime":"2025-11-05T09:00:00:Z","depth":"4","parameterNumber":3,"parameterNumberName":"V-component_of_CURRENTS"},"data":[0,0,0,0,0,0,0,0,0,0,0,0,0,0,0,0,0,0,0,0,0,0,0,0,0,0,0,0,0,0,0,0,0,0,0,0,0,0,0,0,0,0,0,0,0,0,0,0,0,0,0,0,0,0,0,0,0,0,0.0239,0.0239,0,0.0201,0.02,0.02,0.0174,0.0173,0.0173,0.0173,0.0089,0.0087,0.0085,0,0,0,0,0,0,0,0,0,0,0,0,0,0.0271,0.0271,0.0239,0.0239,0.0238,0.0201,0.02,0.02,0.0174,0.0173,0.0173,0.0173,0.0089,0.0087,0.0085,0,0,0,0,0,0,0,0,0,0,0,0,0,0.0248,0.0271,0.0239,0.022,0.0218,0.0201,0.02,0.0199,0.0174,0.0173,0.0173,0.0173,0.009,0.0087,0.0084,0.0072,0,0,0.0075,0.0074,0,0,0,0,0,0,0,0,0.0249,0.0247,0.0224,0.0222,0.0219,0.0191,0.018,0.0154,0.0174,0.0191,0.0173,0.0173,0.0119,0.0113,0.0108,0.0068,0.0064,0.0075,0.0073,0.0072,0.0071,0,0,0,0,0,0,0,0.0251,0.0248,0.0224,0.0223,0.022,0.0207,0.0204,0.0176,0.0157,0.0189,0.0187,0.0183,0.0117,0.0111,0.0106,0.0063,0.0075,0.0072,0.007,0.0069,0.0007,0.0007,0,0,0,0,0,0,0.0256,0.025,0.0225,0.0223,0.0233,0.0207,0.0203,0.0201,0.0158,0.0151,0.0183,0.0182,0.0117,0.0109,0.0103,0.0109,0.0072,0.0069,0.0067,0.0007,0.0007,0.0007,0,0,0,0,0,0,0.0257,0.0255,0.0227,0.0235,0.0231,0.0207,0.0204,0.02,0.02,0.0153,0.0146,0.0188,0.0116,0.0107,0.0088,0.0105,0.0067,0.0065,0.0006,0.0007,0.0007,0.0106,0,0,0,0,0,0,0.0258,0.0255,0.0256,0.0236,0.023,0.0233,0.0205,0.02,0.0197,0.0195,0.0155,0.0146,0.0115,0.0093,0.0085,0.01,0.0062,0.0006,0.0007,0.0007,0.0103,0.011,0.0116,0,0,0,0,0,0.026,0.0268,0.0257,0.0254,0.0233,0.0234,0.0231,0.0212,0.0198,0.0209,0.0177,0.0148,0.0089,0.0091,0.0082,0.0096,0.0006,0.0006,0.0007,0.01,0.0109,0.0116,0,0,0,0,0,0,0.0283,0.0265,0.0253,0.0255,0.0251,0.023,0.0235,0.022,0.0205,0.0198,0.0154,0.0144,0.0133,0.0097,0.01,0.0076,0.0041,0.0039,0.0115,0.0122,0.0129,0.0153,0.006,0,0,0,0,0,0.0289,0.0291,0.0273,0.0278,0.0277,0.0257,0.0254,0.0242,0.0224,0.0217,0.019,0.0154,0.0126,0.0112,0.0083,0.0072,0.0034,0.0071,0.0078,0.0084,0.0095,0.0052,0.0056,0.0008,0.0008,0.0008,0,0,0.0298,0.0289,0.029,0.0283,0.0277,0.0288,0.0256,0.0259,0.0269,0.0208,0.0216,0.0179,0.0128,0.012,0.011,0.0093,0.0076,0.0084,0.009,0.0098,0.0053,0.0058,0.0062,0.0009,0.0009,0.0009,0,0,0.0329,0.0314,0.033,0.033,0.0324,0.0314,0.0319,0.0306,0.0303,0.0301,0.0258,0.0236,0.0197,0.017,0.0148,0.0171,0.0114,0.0153,0.0208,0.0166,0.017,0.0173,0.0133,0.0131,0.0155,0.0156,0.0156,0,0.034,0.0358,0.0337,0.0355,0.0362,0.0332,0.0358,0.035,0.0333,0.0333,0.0316,0.0264,0.0224,0.021,0.0218,0.0189,0.0152,0.0187,0.0177,0.0179,0.0181,0.0138,0.0135,0.0161,0.016,0.0159,0.0159,0,0.0378,0.0399,0.0412,0.0424,0.043,0.0447,0.0435,0.0442,0.043,0.0413,0.0404,0.0355,0.0321,0.0306,0.027,0.0261,0.0227,0.0194,0.0164,0.0192,0.0145,0.014,0.0167,0.0166,0.0164,0.0163,0,0,0.0388,0.0432,0.0436,0.0463,0.0469,0.0479,0.0503,0.0512,0.0525,0.0502,0.0514,0.0471,0.0434,0.0407,0.0357,0.0328,0.0306,0.0272,0.0267,0.0245,0.0211,0.0154,0.0143,0.0269,0.0269,0.0268,0.0175,0,0.0427,0.0482,0.0493,0.0551,0.0578,0.0573,0.06,0.0598,0.0589,0.0589,0.0539,0.0523,0.0473,0.0457,0.0421,0.0329,0.0298,0.0334,0.0176,0.0171,0.0128,0.0137,0.0268,0.0172,0.017,0.017,0.0169,0,0.0454,0.0492,0.0556,0.0621,0.0634,0.0664,0.0697,0.0717,0.0702,0.0694,0.0666,0.0613,0.0566,0.0519,0.0395,0.0417,0.0328,0.0261,0.0255,0.0165,0.0105,0.0134,0.016,0.0161,0.0161,0.0162,0.0162,0,0.0461,0.0536,0.0594,0.0611,0.0671,0.0707,0.0738,0.0745,0.0762,0.0753,0.0748,0.0684,0.0639,0.0536,0.0387,0.0388,0.0243,0.022,0.0089,0.0084,0.0121,0.0118,0.014,0.0141,0.0141,0.0141,0.0141,0,0.0488,0.0537,0.0605,0.0636,0.0704,0.0736,0.0798,0.0816,0.0833,0.0842,0.0796,0.0772,0.0639,0.0531,0.0407,0.0227,0.025,0.0103,0.0057,0.0163,0.0167,0.0117,0.0116,0.0138,0.0138,0.0139,0.014,0,0.0485,0.0532,0.0601,0.0683,0.071,0.0754,0.0835,0.0871,0.0888,0.0898,0.0894,0.0821,0.0681,0.0536,0.0354,0.024,0.0086,0.0017,0.0145,0.0107,-0.0046,-0.0042,-0.0127,-0.013,-0.0132,-0.0134,-0.0136,0,0.0491,0.0525,0.062,0.0659,0.0704,0.0777,0.0827,0.0884,0.0914,0.0914,0.0907,0.0798,0.0721,0.0435,0.0283,0.0048,0.0008,-0.0068,-0.0051,-0.0037,-0.0073,-0.0065,-0.0057,-0.014,-0.014,-0.0141,-0.0142,0,0.0496,0.0528,0.0582,0.0659,0.0725,0.0798,0.0871,0.0893,0.0943,0.096,0.0896,0.0762,0.0599,0.0403,0.0216,0.0049,-0.0012,-0.0093,-0.0089,-0.0073,-0.0054,-0.0085,-0.0075,-0.015,-0.0148,-0.0148,-0.0147,0,0.0489,0.0519,0.0584,0.0651,0.0729,0.0792,0.0842,0.0875,0.0905,0.091,0.0878,0.0735,0.0659,0.04,0.0228,0.0057,0.0013,-0.0038,-0.0038,-0.0031,0.002,0.0061,-0.0036,0,0,0,0,0,0.0478,0.0508,0.0571,0.0646,0.0724,0.0771,0.0855,0.0898,0.0942,0.0892,0.0889,0.0739,0.0485,0.0387,0.0203,0.0172,-0.0022,-0.0051,-0.0081,-0.0195,-0.0185,-0.0148,0,0,0,0,0,0,0.0467,0.0521,0.0556,0.0625,0.0673,0.0759,0.0816,0.0852,0.0828,0.0847,0.0718,0.0674,0.0433,0.0582,0.0191,0.0143,0.0093,-0.0157,-0.0161,-0.02,-0.0192,-0.0184,-0.0142,0,0,0,0,0]}]]